Location: Franzen
(48.6167°N, 15.3833°E)
Time: 12:24:30
(UTC+00:00)

Cosmos 1328 Rocket - Pass Details

Date: 22 April 2021
Orbit: 601 x 627 km, 82.5° (Epoch: 16 May)

Event Time Altitude Azimuth Distance (km) Brightness Sun altitude
Exits shadow 22:22:33 47° 18° (NNE) 842 4.5 -28.4°
Drops below altitude 10° 22:25:45 10° 11° (NNE) 2,015 7.0 -28.5°
Sets 22:28:00 0° 11° (N) 2,927 8.1 -28.5°
